Overview Statistics Trail Chart Weather Telemetry Raw packets
 

This is the latest recevied weather packets stored in our database for station/object ED1ZAI-13. If no packets are shown the sender has not sent any weather packets the latest 10 day(s).

<< 20 21 22 23 24 25 26 >>
Time Temp. Humidity Pressure Rain* Wind** Luminosity Snow
1788302849 20.56° C 58% 1009.6 hPa - - - -
1788302249 20.56° C 57% 1010.3 hPa - - - -
1788301649 20.56° C 55% 1012.2 hPa - - - -
1788301048 21.11° C 55% 1013 hPa - - - -
1788300448 21.11° C 54% 1013.5 hPa - - - -
1788296248 22.22° C 50% 1015.8 hPa - - - -
1788295650 22.22° C 49% 1016.1 hPa - - - -
1788295050 22.22° C 49% 1016.6 hPa - - - -
1788294450 22.22° C 48% 1016.8 hPa - - - -
1788293849 22.78° C 47% 1017 hPa - - - -
1788293249 22.78° C 47% 1016.8 hPa - - - -
1788292649 23.33° C 47% 1016.4 hPa - - - -
1788292048 23.33° C 47% 1016.5 hPa - - - -
1788291450 23.89° C 46% 1016.5 hPa - - - -
1788290850 23.89° C 46% 1016.4 hPa - - - -
1788290249 23.89° C 46% 1015.9 hPa - - - -
1788289649 23.89° C 45% 1016.4 hPa - - - -
1788289049 24.44° C 44% 1016.6 hPa - - - -
1788288448 24.44° C 44% 1016.5 hPa - - - -
1788287850 25° C 43% 1016.8 hPa - - - -
1788287250 25° C 42% 1017 hPa - - - -
1788286650 25° C 43% 1016.9 hPa - - - -
1788286049 25.56° C 41% 1017.2 hPa - - - -
1788285449 25.56° C 41% 1017.2 hPa - - - -
1788284849 25.56° C 41% 1017.3 hPa - - - -

* Rain since midnight (hover to see other rain measurements)
** Current wind speed in m/s (hover to see current wind gust speed)